Vertical_Velocity
1 1 1 0 0 2 1 0 -1 0 -3 2 1 -0 0 1 1 -0 2 2 1 1 1 -0 0 2 -0 -1 1 2 3 2 -2 -2 2 3 -3 -1 0 0 1 -1 -1
2 0 2 1 -1 -1 -0 -1 0 1 1 -0 0 -2 -1 2 3 2 4 2 1 -2 -1 1 0 2 -1 2 2 -1 -3 -0 3 -2 -1 -0 1 1 0 -1 1 -1 0
-1 -1 -2 -1 -2 1 0 0 -2 -2 0 -0 2 2 0 -0 2 -0 -1 -0 2 0 2 0 2 3 1 3 4 -2 2 4 4 -0 -5 -1 0 2 1 2 2 1 1
2 -1 -0 -1 -1 1 1 -1 0 0 1 1 -1 -2 0 2 2 2 -0 0 1 0 -1 -1 -1 0 -0 2 4 2 2 -0 2 1 -1 -1 0 2 1 -2 -5 2 -4
1 3 1 1 2 -1 1 1 1 -1 -1 -1 1 2 1 -3 -2 -1 0 0 -1 -0 1 2 1 2 3 2 -0 4 2 1 1 -1 -3 1 -3 -3 1 1 -3 0 -5
-1 2 2 0 2 1 1 1 1 2 2 1 -2 -0 0 1 2 0 -2 -2 -1 -1 -1 -2 -1 -2 -3 -1 1 3 5 2 1 -1 -1 -3 -3 -1 1 1 -1 0 -12
-6 -2 0 1 1 1 1 -1 1 1 -0 -0 0 -1 -1 2 2 -1 -2 -1 -0 -1 -2 -2 -2 -1 -1 -1 -1 -4 -4 -0 0 2 -0 -3 -5 0 2 -4 -2 -0 -3
2 -2 0 -1 0 -2 -1 1 0 0 1 -0 -0 -1 1 -2 -1 1 2 1 1 1 0 -0 -1 1 -4 -2 -1 -1 0 0 1 1 2 0 0 -2 1 2 -0 -4 -6
-0 -1 -1 1 3 1 1 -1 0 -1 -0 0 -1 1 -1 2 2 0 -0 -2 -2 -0 0 -1 0 1 -0 0 -2 -2 -2 0 1 2 3 0 -3 1 3 1 -6 -2 -5
1 3 1 2 -2 -0 -1 1 -4 -1 1 2 1 1 2 1 -4 -2 2 1 0 -0 2 1 2 -1 -1 0 -0 -1 -4 -4 -7 -9 -3 -2 3 -2 -1 3 1 -0 3
-1 2 2 -1 -1 0 -4 -1 3 -2 0 1 -1 1 -0 -3 -2 1 -4 0 1 1 0 1 3 1 1 1 1 1 -0 -2 -3 -4 -4 -6 -4 -3 -2 4 5 4 2
-3 7 -1 -5 5 0 -1 0 0 -3 -3 1 0 -2 -0 1 -0 1 -2 -6 -1 1 2 2 1 -1 0 1 0 2 1 0 -3 -2 -1 -4 -3 -2 1 1 0 0 5
-1 -2 3 0 2 4 -3 1 -0 1 -1 -1 -4 -4 -2 -1 -4 -0 -1 1 -2 -0 0 1 0 -0 -1 -1 -0 0 2 2 2 2 0 -1 0 1 0 -3 0 -0 -0
5 4 -1 5 1 -2 -1 -3 -1 -2 -2 1 3 1 -0 -1 -0 1 3 2 -1 -1 1 2 -0 0 -1 0 2 1 1 1 -2 -0 3 1 2 1 0 5 -1 -0 -1
5 1 1 -2 -0 1 -1 2 -3 -1 -3 -2 0 1 -0 -2 -4 -4 -0 0 -0 -3 -4 -3 -0 1 0 1 1 1 -0 -1 -2 -0 0 -2 -3 -3 -3 3 1 -0 2
4 1 -0 1 -1 -4 -0 -1 -2 -3 -1 -3 -3 -1 -3 -1 -1 -2 -3 -0 1 -1 -1 -3 -2 -1 -1 -1 -1 0 -0 0 -1 -1 1 0 -2 -3 -5 -4 1 3 -1
2 1 1 -1 1 -2 -2 -2 -3 1 -1 1 -5 3 -3 0 0 -1 -3 -2 -0 0 -2 -1 -2 -2 -3 -0 -2 -3 -3 -2 0 -1 -1 -2 -3 -1 -2 -0 -2 1 -2
3 0 3 0 2 -1 1 1 2 2 -0 -6 -3 4 -0 -3 -1 -3 -3 -3 1 -1 -1 -0 -1 -2 -2 0 -1 0 2 1 1 -1 -1 -2 -3 -3 -3 -1 -1 -2 -0
-1 1 1 -1 -6 -4 -0 0 2 -5 -3 2 1 -1 -3 -4 -4 -3 -2 1 -0 -1 -0 -2 -2 -1 -0 0 1 1 -1 -1 -1 -1 -2 -0 -1 -2 0 -1 -1 4 1
2 1 -2 1 6 -0 -5 -6 -6 -3 1 2 -1 -3 -1 -2 -1 -0 0 0 -1 -2 -2 -2 -2 -1 -1 1 -0 -2 -1 -0 -1 -1 -1 -2 -2 -1 -1 0 0 -5 -3
-1 -2 -3 -7 -15 -6 3 3 2 -2 -1 -1 -1 -2 1 -2 1 -1 -2 -1 0 -0 -0 -1 -1 -1 -3 -4 -2 -0 -0 -1 -0 0 -2 -0 -1 -3 1 -0 1 0 1
-4 -10 -8 1 4 2 -0 2 2 2 -2 -4 -0 1 1 1 1 0 1 -2 -1 0 1 -0 -2 -0 -1 0 -1 -1 0 0 0 0 -0 -1 -2 -0 -1 -1 -1 1 -1
1 2 1 -1 2 -2 -0 -3 1 -2 -2 -4 -1 1 -4 -4 -3 -3 -2 -1 -2 -1 -1 -1 -2 1 3 0 -0 1 -1 -1 -2 -2 -1 -1 -0 -2 -2 -1 -2 -2 -1
-1 -2 -1 -3 -1 0 -4 -2 4 -4 -5 -1 -6 -2 -3 -3 -2 -2 -1 0 -2 -1 0 0 -1 1 1 0 -2 1 0 -2 -2 -1 -1 -0 -1 -0 -2 -1 -2 1 -2
1 -2 -3 0 1 -2 -1 -3 -0 2 2 -1 1 -0 -5 -3 -2 -1 -0 -0 1 2 2 -0 -1 1 3 -0 -0 -2 -0 -0 -0 -1 -0 -1 -2 -1 -0 2 1 -1 1
1 1 5 2 -5 -2 -3 -2 2 0 0 6 -6 -0 1 2 -1 0 1 3 1 2 2 0 0 0 -1 -0 -1 -3 -2 -1 -1 -1 -2 -0 -1 0 -0 0 1 -0 -2
Height
1530 1532 1533 1534 1535 1535 1535 1534 1534 1534 1534 1534 1534 1534 1535 1536 1538 1539 1540 1540 1540 1541 1543 1544 1545 1546 1547 1548 1549 1549 1549 1549 1548 1547 1547 1548 1547 1547 1546 1547 1546 1546 1543
1529 1531 1532 1533 1533 1533 1534 1534 1534 1533 1533 1532 1532 1532 1533 1534 1535 1536 1536 1537 1537 1538 1539 1540 1541 1542 1542 1544 1545 1545 1545 1545 1544 1543 1543 1543 1542 1543 1543 1542 1541 1541 1540
1527 1529 1531 1531 1532 1533 1533 1533 1533 1533 1533 1532 1531 1531 1531 1532 1532 1532 1533 1533 1534 1534 1535 1536 1537 1537 1537 1539 1540 1539 1539 1539 1539 1537 1537 1538 1537 1537 1536 1536 1536 1536 1535
1526 1527 1529 1530 1531 1532 1532 1532 1532 1532 1532 1531 1531 1530 1530 1531 1531 1530 1530 1531 1531 1531 1532 1532 1533 1533 1533 1533 1534 1534 1534 1533 1532 1532 1531 1532 1531 1531 1529 1529 1528 1529 1528
1525 1527 1529 1530 1529 1531 1531 1530 1530 1530 1530 1530 1529 1529 1528 1528 1528 1527 1528 1528 1529 1529 1529 1529 1529 1529 1529 1528 1527 1527 1527 1527 1526 1526 1525 1525 1525 1524 1524 1523 1520 1521 1520
1524 1527 1528 1528 1529 1529 1529 1529 1528 1528 1527 1526 1526 1527 1526 1526 1525 1524 1524 1525 1526 1526 1526 1526 1526 1525 1525 1524 1523 1522 1522 1520 1519 1519 1519 1519 1519 1518 1517 1516 1514 1513 1510
1521 1526 1527 1528 1528 1528 1527 1527 1526 1525 1524 1524 1523 1524 1524 1523 1521 1521 1521 1521 1521 1521 1522 1522 1521 1521 1520 1518 1517 1516 1516 1515 1515 1514 1513 1514 1512 1512 1511 1509 1509 1507 1505
1520 1523 1525 1526 1526 1525 1526 1524 1523 1523 1521 1520 1520 1520 1521 1518 1518 1518 1517 1517 1517 1516 1516 1516 1516 1515 1513 1512 1511 1510 1510 1509 1509 1508 1507 1506 1506 1506 1504 1503 1502 1500 1499
1521 1523 1524 1524 1524 1522 1522 1520 1520 1519 1519 1517 1516 1516 1515 1516 1515 1514 1514 1513 1512 1511 1511 1510 1510 1509 1508 1507 1505 1504 1504 1503 1502 1501 1500 1499 1499 1499 1499 1496 1495 1495 1491
1523 1521 1521 1521 1521 1520 1519 1518 1517 1517 1517 1516 1515 1515 1514 1514 1513 1513 1512 1510 1508 1507 1507 1506 1505 1504 1503 1502 1500 1499 1498 1498 1496 1495 1494 1493 1493 1492 1493 1491 1490 1488 1487
1521 1520 1519 1518 1517 1515 1516 1517 1514 1514 1516 1515 1515 1514 1513 1512 1511 1508 1508 1508 1505 1504 1502 1501 1500 1498 1497 1496 1495 1494 1492 1490 1489 1487 1486 1485 1485 1483 1483 1483 1482 1481 1480
1520 1519 1515 1516 1516 1512 1513 1513 1512 1511 1513 1513 1512 1513 1513 1510 1508 1505 1502 1502 1501 1498 1496 1494 1492 1491 1490 1489 1488 1487 1485 1483 1482 1480 1478 1477 1477 1476 1475 1474 1473 1472 1471
1516 1515 1514 1513 1513 1510 1511 1510 1511 1510 1509 1509 1509 1509 1509 1507 1506 1503 1500 1496 1495 1494 1492 1489 1486 1485 1484 1482 1481 1480 1479 1478 1476 1474 1473 1472 1471 1469 1468 1467 1466 1465 1463
1512 1510 1511 1511 1508 1508 1509 1509 1510 1510 1512 1512 1509 1506 1505 1503 1501 1501 1498 1495 1492 1491 1489 1486 1483 1482 1480 1480 1478 1476 1474 1472 1471 1469 1468 1466 1465 1464 1462 1461 1459 1457 1455
1507 1507 1507 1506 1506 1505 1507 1508 1508 1511 1510 1511 1510 1507 1504 1501 1498 1497 1496 1492 1489 1487 1486 1485 1483 1479 1478 1477 1474 1472 1471 1469 1468 1465 1462 1460 1459 1458 1456 1454 1453 1451 1448
1504 1501 1503 1502 1504 1505 1508 1507 1509 1511 1509 1509 1509 1508 1505 1501 1497 1495 1495 1492 1488 1486 1484 1483 1482 1478 1476 1473 1470 1469 1467 1465 1462 1460 1458 1455 1454 1452 1450 1448 1447 1445 1442
1499 1500 1500 1501 1503 1503 1507 1507 1509 1508 1508 1507 1510 1507 1503 1501 1497 1495 1493 1492 1489 1487 1484 1481 1480 1478 1477 1473 1470 1468 1466 1463 1461 1458 1455 1452 1451 1449 1447 1444 1442 1439 1436
1498 1499 1500 1501 1500 1503 1506 1507 1506 1503 1504 1508 1512 1505 1501 1499 1496 1495 1494 1493 1490 1487 1485 1482 1480 1479 1478 1475 1472 1469 1466 1463 1460 1457 1454 1451 1449 1446 1444 1440 1438 1434 1430
1497 1498 1498 1497 1499 1502 1505 1504 1502 1502 1505 1507 1505 1502 1500 1499 1497 1496 1495 1492 1489 1487 1485 1483 1482 1481 1479 1476 1473 1470 1467 1463 1460 1456 1453 1451 1448 1445 1441 1437 1433 1429 1425
1494 1494 1497 1498 1498 1498 1502 1503 1503 1504 1504 1503 1500 1500 1499 1498 1497 1496 1494 1490 1488 1487 1485 1484 1482 1481 1479 1476 1473 1470 1467 1464 1460 1456 1453 1451 1448 1445 1440 1436 1431 1426 1422
1490 1494 1497 1496 1502 1505 1503 1502 1500 1499 1500 1499 1499 1498 1498 1497 1496 1494 1492 1490 1489 1487 1485 1484 1482 1480 1478 1476 1473 1470 1467 1463 1460 1456 1453 1450 1446 1442 1439 1434 1429 1425 1420
1492 1495 1499 1501 1502 1500 1500 1500 1499 1496 1496 1498 1498 1497 1497 1495 1493 1492 1491 1490 1489 1486 1484 1482 1481 1479 1477 1474 1471 1468 1465 1461 1458 1455 1452 1448 1445 1441 1437 1433 1428 1424 1419
1493 1494 1496 1498 1498 1498 1498 1498 1496 1497 1496 1497 1496 1495 1494 1493 1492 1491 1490 1488 1487 1485 1482 1480 1479 1478 1475 1472 1469 1466 1462 1460 1456 1453 1450 1447 1443 1440 1436 1432 1427 1422 1418
1488 1491 1492 1494 1496 1496 1496 1496 1494 1492 1493 1494 1494 1493 1492 1491 1490 1488 1487 1486 1485 1483 1480 1478 1476 1474 1471 1469 1467 1464 1461 1458 1455 1452 1449 1445 1442 1438 1435 1431 1427 1422 1418
1485 1487 1488 1490 1491 1491 1492 1492 1491 1490 1491 1491 1491 1489 1489 1487 1487 1485 1484 1483 1481 1480 1478 1475 1473 1472 1469 1466 1464 1462 1460 1457 1454 1451 1448 1444 1441 1437 1434 1430 1425 1421 1417
1483 1484 1484 1484 1484 1485 1486 1487 1487 1487 1486 1486 1486 1485 1485 1484 1484 1482 1480 1478 1477 1476 1475 1473 1471 1468 1466 1464 1461 1460 1458 1456 1453 1450 1447 1443 1440 1436 1432 1427 1423 1419 1415